This is the latest recevied weather packets stored in our database for station/object N0QWM. If no packets are shown the sender has not sent any weather packets the latest 10 day(s).
| Time | Temp. | Humidity | Pressure | Rain* | Wind** | Luminosity | Snow |
|---|---|---|---|---|---|---|---|
| 1788106407 | 31.11° C | 72% | 1026.2 hPa | 0 mm | - | 168 W/m² | - |
| 1788106103 | 30.56° C | 71% | 1026.4 hPa | 0 mm | - | 740 W/m² | - |
| 1788105800 | 30.56° C | 72% | 1026.4 hPa | 0 mm | - | 226 W/m² | - |
| 1788105494 | 30° C | 72% | 1026.4 hPa | 0 mm | - | 821 W/m² | - |
| 1788105191 | 30° C | 73% | 1026.4 hPa | 0 mm | - | 818 W/m² | - |
| 1788104885 | 30.56° C | 75% | 1026.2 hPa | 0 mm | - | 806 W/m² | - |
| 1788104581 | 29.44° C | 76% | 1026.2 hPa | 0 mm | - | 772 W/m² | - |
| 1788104277 | 29.44° C | 77% | 1026.5 hPa | 0 mm | - | 843 W/m² | - |
| 1788103973 | 29.44° C | 77% | 1026.3 hPa | 0 mm | - | 880 W/m² | - |
| 1788103682 | 29.44° C | 77% | 1026.5 hPa | 0 mm | - | 757 W/m² | - |
| 1788103366 | 30° C | 77% | 1026.2 hPa | 0 mm | - | 131 W/m² | - |
| 1788103065 | 29.44° C | 77% | 1026.3 hPa | 0 mm | - | 857 W/m² | - |
| 1788102764 | 28.89° C | 79% | 1026.2 hPa | 0 mm | - | 797 W/m² | - |
| 1788102460 | 28.33° C | 80% | 1026.3 hPa | 0 mm | - | 793 W/m² | - |
| 1788102159 | 27.78° C | 82% | 1026.4 hPa | 0 mm | - | 455 W/m² | - |
| 1788101854 | 27.78° C | 83% | 1026.4 hPa | 0 mm | - | 801 W/m² | - |
| 1788101549 | 28.33° C | 83% | 1026.4 hPa | 0 mm | - | 187 W/m² | - |
| 1788101244 | 28.33° C | 81% | 1026.6 hPa | 0 mm | - | 351 W/m² | - |
| 1788100940 | 28.89° C | 80% | 1026.4 hPa | 0 mm | - | 714 W/m² | - |
| 1788100636 | 28.33° C | 81% | 1026.2 hPa | 0 mm | - | 672 W/m² | - |
| 1788100334 | 27.78° C | 85% | 1026.4 hPa | 0 mm | - | 580 W/m² | - |
| 1788100030 | 27.78° C | 82% | 1026.5 hPa | 0 mm | - | 548 W/m² | - |
| 1788099724 | 28.33° C | 82% | 1026.5 hPa | 0 mm | - | 514 W/m² | - |
| 1788099420 | 27.78° C | 86% | 1026.5 hPa | 0 mm | - | 504 W/m² | - |
| 1788099114 | 27.78° C | 84% | 1026.3 hPa | 0 mm | - | 471 W/m² | - |
* Rain latest hour (hover to see other rain measurements)
** Current wind speed in m/s (hover to see current wind gust speed)